Regional Weather Roundup
Issued by NWS Newport/Morehead, NC

Current Version | Previous Version | Graphics & Text | Print | Product List | Glossary Off
Versions: 1 2 3 4 5 6 7 8 9 10 11 12 13 14 15 16 17 18 19 20 21 22 23 24 25 26 27 28 29 30 31 32 33 34 35 36 37 38 39 40 41 42 43 44 45 46 47 48 49 50
000 ASUS42 KMHX 311113 RWRMHX WEATHER ROUNDUP FOR EASTERN NORTH CAROLINA NATIONAL WEATHER SERVICE NEWPORT/MOREHEAD CITY NC 700 AM EDT TUE MAY 31 2016 NOTE: "FAIR" INDICATES FEW OR NO CLOUDS BELOW 12,000 FEET WITH NO SIGNIFICANT WEATHER AND/OR OBSTRUCTIONS TO VISIBILITY NCZ015>017-031-032-045>047-102-103-311200- NORTH COAST CITY SKY/WX TMP DP RH WIND PRES REMARKS EDENTON CLOUDY N/A N/A N/A NE3 29.95R ELIZABETH CITY CLOUDY 71 68 90 NE5 29.95R KITTY HAWK FOG 68 68 100 CALM 29.94R VSB 1/4 MANTEO NOT AVBL $$ NCZ045>047-081-094-103-104-311200- CENTRAL COAST CITY SKY/WX TMP DP RH WIND PRES REMARKS FRISCO PTSUNNY 72 71 97 N5 29.93R $$ NCZ095-097-098-100-101-311200- SOUTHERN COAST CITY SKY/WX TMP DP RH WIND PRES REMARKS BEAUFORT PTSUNNY 73 72 96 NE5 29.91R CEDAR ISLAND NOT AVBL JACKSONVILLE CLOUDY 73 70 90 NE3 29.91R PINEY ISLAND NOT AVBL WILMINGTON LGT RAIN 71 70 96 NE8 29.90R FOG $$ NCZ011>013-027>030-043-044-078>080-089-090>093-098-311200- COASTAL PLAIN CITY SKY/WX TMP DP RH WIND PRES REMARKS AHOSKIE CLOUDY 68 67 98 CALM 29.95R FOG CLINTON CLOUDY 71 71 100 NE5 29.93R FOG ELIZABETHTOWN CLOUDY 71 71 100 CALM 29.91R FOG GOLDSBORO NOT AVBL GREENVILLE CLOUDY 70 70 100 N8 29.95S FOG HAVELOCK CLOUDY 74 71 91 NE9 29.93R KENANSVILLE CLOUDY 70 69 98 CALM 29.93S FOG KINSTON CLOUDY 70 70 100 NE9 29.94S FOG NEW BERN LGT RAIN 71 70 96 NE7 29.93R FOG RICHLANDS CLOUDY 71 71 100 NE5 29.92S FOG ROCKY MOUNT CLOUDY 71 69 93 NE5 29.94R WASHINGTON FOG 68 68 99 NE6 29.94R VSB 1/2 WHITEVILLE CLOUDY 72 70 96 NE5 29.90R FOG $$ AMZ130-135-150-152-154-156-158-170-250-252-270-ANZ085-086-088-633-658-670-311200- MARINE OBSERVATIONS STATION/POSITION TIME TEMP WIND PRES WAVE SWELL AIR SEA DIR/SP/G HT/PER HT/PER (UTC) (F) (DEG/KT/KT) (MB) (FT/S) (FT/S) CHESAPEAKE LIGHT 1000 69 30/ 5/ 5 1014.3 64 E VA BEACH 1050 65 65 320/ 10/ 12 1013.4 6/ 8 5/ 8 DUCK 1000 65 58 10/ 5/ 5 1012.8 2 E DUCK 1011 62 N/A 4/ 8 OREGON INLET 1000 67 74 20/ 3/ 4 1013.1 13E OREGON INLT 1100 67 N/A 4/ 8 3/ 8 HATTERAS CG 1000 72 74 20/ 2/ 3 1012.3 DIAMOND BUOY 1050 76 80 170/ 17/ 19 1013.0 6/ 9 5/ 9 CAPE LOOKOUT 1100 75 80/ 1/ 1 1012.3 BEAUFORT LAB 1000 74 75 10/ 5/ 5 1011.6 30 SE NEW RVR IN 1025 76 N/A 5/ 8 2/11 27 SE WRIGHTSVLE 1008 76 76 70/ 6/ 8 1011.4 5 SE WRIGHTSVLE 1008 76 76 110/ 6/ 10 1012.3 225 S CAPE HAT 1050 75 75 150/ 10/ 12 1014.8 5/ 8 5/ 8 41 SE CHARLESTON 1050 74 77 310/ 14/ 16 1011.2 4/ 8 3/ 8 $$

USA.gov is the U.S. government's official web portal to all federal, state and local government web resources and services.